Stations météo

réclame
Mon MeteoGroup
Magdeburg, Allemagne (10361): Température de l'air & dewpoint: 18.05.2019 03:00:00 - 24.05.2019 03:00:00 (CEST)Magdeburg, Allemagne (10361): Température de l'air 5cm & Température de l'air -5cm: 18.05.2019 03:00:00 - 24.05.2019 03:00:00 (CEST)Magdeburg, Allemagne (10361): Température de l'air -20cm & Température de l'air -100cm: 18.05.2019 03:00:00 - 24.05.2019 03:00:00 (CEST)Magdeburg, Allemagne (10361): Vitesse du vent & gusts: 18.05.2019 03:00:00 - 24.05.2019 03:00:00 (CEST)Magdeburg, Allemagne (10361): Direction du vent: 18.05.2019 03:00:00 - 24.05.2019 03:00:00 (CEST)Magdeburg, Allemagne (10361): reduced air pressure: 18.05.2019 03:00:00 - 24.05.2019 03:00:00 (CEST)Magdeburg, Allemagne (10361): visibility: 18.05.2019 03:00:00 - 24.05.2019 03:00:00 (CEST)Magdeburg, Allemagne (10361): Ensoleillement: 18.05.2019 03:00:00 - 24.05.2019 03:00:00 (CEST)Magdeburg, Allemagne (10361): Quantités de précipitations: 18.05.2019 03:00:00 - 24.05.2019 03:00:00 (CEST)
Date & Time tt [°C] td [°C] tt 5cm [°C] tt -5cm [°C] tt -20cm [°C] tt -100cm [°C] ff [km/h] ff [knt] fx [km/h] fx [knt] dd ppp [hPa] vv [km] sd [min] rr [mm]
24.05.2019 03:00:00 9,6 7,3 6,9 11,8 17,4 12,9 4 2 6 4 SSE 1016,3 27 0 0,0
24.05.2019 02:00:00 10,6 7,2 7,0 12,6 18,0 12,9 5 3 6 4 S 1016,5 44 0 0,0
24.05.2019 01:00:00 11,4 7,2 7,6 13,6 18,5 12,9 4 2 7 4 S 1016,8 53 0 0,0
24.05.2019 00:00:00 12,2 7,2 8,4 14,8 19,0 12,9 3 2 8 4 SSE 1017,0 60 0 0,0
23.05.2019 23:00:00 14,0 6,9 10,3 16,2 19,5 12,9 5 3 8 5 SE 1017,0 62 0 0,0
23.05.2019 22:00:00 14,6 7,4 10,6 18,1 19,9 12,9 2 1 7 4 SE 1017,3 60 0 0,0
23.05.2019 21:00:00 17,3 6,1 14,2 20,8 20,1 12,9 4 2 6 4 N 1017,0 70 14 0,0
23.05.2019 20:00:00 19,4 4,2 17,7 23,2 20,1 12,9 3 2 16 8 N 1016,8 70 26 0,0
23.05.2019 19:00:00 20,1 3,8 21,3 26,3 19,8 12,9 8 4 15 8 NNE 1017,0 70 60 0,0
23.05.2019 18:00:00 20,1 4,1 22,5 28,6 19,3 12,9 6 4 18 10 WNW 1017,2 70 60 0,0
23.05.2019 17:00:00 19,9 4,4 23,7 30,4 18,5 12,9 8 5 20 11 W 1017,6 63 60 0,0
23.05.2019 16:00:00 19,9 4,6 24,0 31,2 17,6 12,9 9 5 28 15 WNW 1017,9 54 60 0,0
23.05.2019 15:00:00 19,2 5,5 24,3 31,1 16,5 12,9 4 2 20 11 ENE 1018,4 53 60 0,0
23.05.2019 14:00:00 18,8 5,1 23,8 29,7 15,5 12,9 5 3 16 9 N 1018,9 39 60 0,0
23.05.2019 13:00:00 17,2 3,7 22,7 27,1 14,7 12,9 9 5 19 11 NNW 1019,3 57 60 0,0
23.05.2019 12:00:00 16,5 4,8 21,4 24,4 13,9 12,9 5 3 16 8 NW 1019,7 44 60 0,0
23.05.2019 11:00:00 14,5 5,7 18,5 20,4 13,4 12,9 8 4 18 10 W 1020,1 45 59 0,0
23.05.2019 10:00:00 13,5 8,2 16,1 18,1 13,0 12,9 7 4 14 7 W 1020,0 20 53 0,0
23.05.2019 09:00:00 13,3 8,0 15,4 16,2 12,7 12,9 4 2 11 6 NW 1020,0 19 59 0,0
23.05.2019 08:00:00 12,4 7,9 12,9 12,4 12,8 12,9 4 2 10 5 NW 1019,9 23 60 0,0
23.05.2019 07:00:00 9,7 6,8 9,1 8,9 13,0 12,9 4 2 7 4 W 1019,4 20 29 0,0
23.05.2019 06:00:00 7,2 6,1 4,8 7,7 13,3 12,9 4 2 8 5 W 1019,4 15 0 0,0
23.05.2019 05:00:00 7,1 6,0 4,3 8,0 13,6 12,9 3 2 8 5 W 1019,5 15 0 0,0
23.05.2019 04:00:00 8,1 6,4 5,9 8,5 13,9 12,9 3 1 8 5 WNW 1019,3 26 0 0,0
23.05.2019 03:00:00 7,2 5,9 4,2 7,9 14,3 12,8 2 1 8 4 WNW 1019,4 24 0 0,0
23.05.2019 02:00:00 7,3 5,8 4,0 8,5 14,7 12,8 3 2 9 5 NW 1019,3 21 0 0,0
23.05.2019 01:00:00 8,4 6,1 5,6 9,2 15,1 12,8 4 2 9 5 WNW 1019,1 35 0 0,0
23.05.2019 00:00:00 9,3 6,4 7,1 10,0 15,5 12,8 5 3 11 6 WNW 1018,9 43 0 0,0
22.05.2019 23:00:00 9,8 6,9 7,0 11,0 15,8 12,8 4 2 9 5 WNW 1018,5 36 0 0,0
22.05.2019 22:00:00 11,3 7,6 7,9 12,3 16,0 12,8 3 2 12 6 NW 1018,3 40 0 0,0
22.05.2019 21:00:00 13,1 8,3 11,2 14,0 16,1 12,8 6 4 19 11 WNW 1017,5 30 49 0,0
22.05.2019 20:00:00 14,8 7,6 14,0 16,6 16,0 12,8 9 5 30 16 NW 1017,3 40 60 0,0
22.05.2019 19:00:00 15,3 7,8 15,8 18,4 15,8 12,8 10 5 31 17 NW 1016,9 31 33 0,0
22.05.2019 18:00:00 15,3 8,5 16,6 19,3 15,6 12,8 14 8 34 18 WNW 1016,8 25 26 0,0
22.05.2019 17:00:00 14,7 9,1 16,5 17,8 15,5 12,8 12 7 34 19 WNW 1016,7 27 1 0,0
22.05.2019 16:00:00 13,2 9,2 14,0 15,7 15,4 12,7 13 7 34 19 WNW 1016,7 26 0 0,0
22.05.2019 15:00:00 12,9 9,4 13,5 15,7 15,4 12,7 13 7 38 20 WNW 1016,4 20 0 0,0
22.05.2019 14:00:00 12,8 9,5 13,2 15,2 15,4 12,7 12 7 39 21 WNW 1016,2 18 0 0,0
22.05.2019 13:00:00 12,6 9,6 12,8 15,0 15,4 12,7 12 6 39 21 NW 1015,8 20 0 0,0
22.05.2019 12:00:00 12,3 9,8 12,7 14,7 15,5 12,7 13 7 31 17 WNW 1015,3 19 0 0,0
22.05.2019 11:00:00 12,4 9,4 12,6 14,1 15,6 12,7 11 6 37 20 WNW 1014,9 17 0 0,0
22.05.2019 10:00:00 12,2 9,2 12,3 13,7 15,7 12,7 11 6 37 20 WNW 1014,3 13 0 0,0
22.05.2019 09:00:00 11,9 9,5 11,8 13,3 15,9 12,7 11 6 35 19 WNW 1013,9 12 0 0,0
22.05.2019 08:00:00 11,6 9,5 11,3 12,9 16,2 12,6 11 6 43 23 WNW 1013,5 12 0 0,0
22.05.2019 07:00:00 11,8 9,8 11,4 13,0 16,4 12,6 11 6 35 19 WNW 1012,9 9 0 0,0
22.05.2019 06:00:00 11,7 10,2 11,3 13,1 16,7 12,6 14 8 32 18 WNW 1012,3 7 0 0,0
22.05.2019 05:00:00 12,0 10,5 11,6 13,5 17,0 12,6 14 8 33 18 WNW 1012,0 5 0 0,0
22.05.2019 04:00:00 12,5 10,9 12,0 14,1 17,3 12,6 13 7 33 18 WNW 1011,6 8 0 0,0
22.05.2019 03:00:00 13,0 11,7 12,2 14,5 17,6 12,6 8 5 31 17 NW 1011,3 8 0 0,0
22.05.2019 02:00:00 13,3 12,5 12,7 15,0 17,9 12,6 8 4 22 12 NW 1011,2 4,3 0 0,3
22.05.2019 01:00:00 13,5 12,6 12,9 15,4 18,2 12,6 8 5 24 13 NW 1011,0 5 0 0,1
22.05.2019 00:00:00 14,0 12,9 13,5 15,8 18,6 12,6 7 4 26 14 WNW 1010,9 4,4 0 0,0
21.05.2019 23:00:00 14,1 12,8 13,7 16,2 19,0 12,5 9 5 28 15 WNW 1010,6 4,7 0 0,0
21.05.2019 22:00:00 14,6 13,2 14,1 16,8 19,3 12,5 12 6 31 17 WNW 1010,1 9 0 0,0
21.05.2019 21:00:00 15,2 13,6 14,6 18,0 19,7 12,5 13 7 32 18 WNW 1009,4 17 0 0,0
21.05.2019 20:00:00 16,3 14,1 15,4 19,1 19,9 12,5 10 5 30 16 WNW 1008,6 24 0 0,1
21.05.2019 19:00:00 17,0 15,0 16,0 20,6 20,1 12,5 9 5 31 17 WNW 1007,8 9 0 0,4
21.05.2019 18:00:00 18,4 15,7 17,7 22,7 20,0 12,5 11 6 27 15 WNW 1007,3 10 0 0,0
21.05.2019 17:00:00 20,3 14,9 21,2 25,1 19,6 12,5 12 6 27 15 WNW 1006,5 19 6 0,0
21.05.2019 16:00:00 22,3 12,7 24,9 27,5 19,1 12,4 7 4 16 9 NE 1006,2 38 28 0,0
21.05.2019 15:00:00 21,7 12,5 24,5 29,1 18,3 12,4 8 5 16 9 N 1006,1 41 47 0,0
21.05.2019 14:00:00 21,2 13,3 25,8 28,3 17,7 12,4 6 4 16 9 N 1006,0 21 50 0,0
21.05.2019 13:00:00 19,7 13,8 23,4 25,7 17,1 12,4 7 4 16 9 NNE 1006,1 18 27 0,0
21.05.2019 12:00:00 17,9 13,7 20,6 23,0 16,8 12,4 9 5 19 11 N 1005,8 10 13 0,0
21.05.2019 11:00:00 16,7 13,8 18,3 20,5 16,7 12,4 9 5 18 10 NNE 1005,7 9 1 0,0
21.05.2019 10:00:00 15,0 13,6 15,5 17,7 16,6 12,4 8 4 15 8 N 1005,4 5 0 0,0
21.05.2019 09:00:00 15,0 13,4 15,6 17,4 16,6 12,3 8 4 14 7 N 1004,6 6 0 0,0
21.05.2019 08:00:00 14,7 13,7 14,7 16,2 16,8 12,3 6 3 14 7 NE 1004,0 6 0 0,0
21.05.2019 07:00:00 14,0 13,4 13,8 14,8 17,0 12,3 8 4 15 8 NNE 1003,6 3,3 0 0,0
21.05.2019 06:00:00 13,7 13,2 12,8 13,7 17,3 12,3 6 4 14 7 NNE 1003,2 3,7 0 0,0
21.05.2019 05:00:00 13,9 13,2 12,2 14,2 17,6 12,3 6 4 10 6 NNE 1002,8 3,1 0 0,0
21.05.2019 04:00:00 14,7 13,7 13,0 15,3 17,9 12,3 5 3 14 8 NE 1002,5 7 0 0,0
21.05.2019 03:00:00 15,9 15,2 15,1 16,5 18,1 12,2 6 3 19 10 ENE 1002,0 5 0 0,0
21.05.2019 02:00:00 16,2 15,5 15,6 16,8 18,4 12,2 9 5 20 11 ENE 1001,5 4,6 0 0,0
21.05.2019 01:00:00 16,2 15,5 15,5 17,0 18,6 12,2 9 5 21 11 NE 1001,2 5 0 0,7
21.05.2019 00:00:00 16,2 15,3 15,6 17,3 18,9 12,2 12 6 24 13 NNE 1001,5 1,9 0 0,0
20.05.2019 23:00:00 16,7 15,4 16,1 17,6 19,3 12,2 12 6 21 11 N 1001,6 9 0 0,0
20.05.2019 22:00:00 16,1 15,1 15,7 17,7 19,7 12,2 6 3 16 9 NNW 1001,4 16 0 3,5
20.05.2019 21:00:00 15,7 14,5 15,0 18,1 20,1 12,2 7 4 24 13 NNW 1001,4 2,9 0 1,6
20.05.2019 20:00:00 16,5 14,8 15,5 18,8 20,4 12,1 16 9 40 22 NNE 1002,0 6 0 1,6
20.05.2019 19:00:00 18,2 15,4 16,7 21,2 20,6 12,1 10 5 27 15 N 1001,5 15 0 0,5
20.05.2019 18:00:00 19,7 15,5 18,2 22,9 20,7 12,1 4 2 18 10 NNE 1001,3 12 0 0,2
20.05.2019 17:00:00 21,4 14,5 21,7 24,5 20,7 12,1 6 3 15 8 N 1001,0 33 0 0,1
20.05.2019 16:00:00 21,5 13,9 21,5 25,7 20,4 12,1 7 4 42 23 NE 1001,7 33 0 0,1
20.05.2019 15:00:00 25,0 10,8 28,4 30,5 19,8 12,1 17 9 32 17 NNE 1001,5 36 27 0,0
20.05.2019 14:00:00 23,8 12,7 27,2 30,7 19,1 12,1 14 8 31 17 N 1002,1 26 33 0,0
20.05.2019 13:00:00 23,0 13,7 28,3 31,3 18,2 12,0 14 7 31 17 N 1002,5 23 54 0,0
20.05.2019 12:00:00 22,5 13,7 28,2 29,4 17,6 12,0 14 7 27 15 N 1002,6 23 60 0,0
20.05.2019 11:00:00 20,7 13,9 24,9 24,6 17,2 12,0 11 6 21 11 N 1003,2 19 40 0,0
20.05.2019 10:00:00 19,1 13,4 21,7 22,6 16,9 12,0 10 5 18 10 NNE 1003,5 18 58 0,0
20.05.2019 09:00:00 17,9 13,1 19,9 19,9 16,8 12,0 9 5 19 10 NNE 1003,5 15 60 0,0
20.05.2019 08:00:00 16,0 12,7 17,1 16,7 17,0 12,0 10 5 20 11 NNE 1003,4 13 60 0,0
20.05.2019 07:00:00 14,5 12,2 14,3 14,6 17,3 12,0 10 5 16 9 N 1003,3 12 25 0,0
20.05.2019 06:00:00 12,9 11,5 11,2 13,8 17,7 12,0 7 4 13 7 NNW 1003,4 9 0 0,0
20.05.2019 05:00:00 13,1 11,6 11,4 14,1 18,1 12,0 8 4 12 7 NNW 1003,4 10 0 0,0
20.05.2019 04:00:00 13,0 11,5 10,8 14,6 18,6 11,9 6 4 11 6 NNW 1003,7 10 0 0,0
20.05.2019 03:00:00 13,8 11,9 10,7 15,0 19,1 11,9 6 3 13 7 N 1003,6 12 0 0,0
20.05.2019 02:00:00 14,3 12,2 11,2 15,7 19,6 11,9 8 4 12 7 N 1003,5 12 0 0,0
20.05.2019 01:00:00 14,4 11,7 10,9 16,8 20,1 11,9 5 3 9 5 N 1003,7 18 0 0,0
20.05.2019 00:00:00 16,3 12,0 12,6 18,0 20,6 11,9 6 3 12 6 N 1004,0 24 0 0,0
19.05.2019 23:00:00 18,3 11,7 14,5 19,4 21,1 11,9 5 3 16 9 NNE 1004,0 31 0 0,0
19.05.2019 22:00:00 20,6 12,2 17,9 21,0 21,5 11,9 8 4 14 8 NE 1003,7 33 0 0,0
19.05.2019 21:00:00 22,0 11,1 19,7 23,1 21,8 11,9 6 4 23 13 E 1003,4 37 13 0,0
19.05.2019 20:00:00 23,6 9,4 22,3 26,2 21,8 11,9 8 5 24 13 E 1002,9 46 40 0,0
19.05.2019 19:00:00 25,4 7,7 26,3 29,3 21,5 11,9 8 4 22 12 SE 1002,8 53 60 0,0
19.05.2019 18:00:00 25,6 7,4 27,7 31,8 21,0 11,9 8 5 22 12 SSE 1003,2 42 60 0,0
19.05.2019 17:00:00 25,7 7,8 28,7 33,0 20,3 11,9 10 5 26 14 SE 1003,6 41 60 0,0
19.05.2019 16:00:00 25,3 7,3 29,2 33,7 19,5 11,9 13 7 26 14 SE 1003,9 42 54 0,0
19.05.2019 15:00:00 25,6 8,1 29,4 33,3 18,5 11,9 14 8 29 15 ESE 1004,2 46 51 0,0
19.05.2019 14:00:00 25,2 8,5 30,6 33,5 17,4 11,8 13 7 26 14 E 1004,4 40 57 0,0
19.05.2019 13:00:00 24,3 8,5 29,2 31,0 16,5 11,8 10 5 30 16 SE 1004,5 34 57 0,0
19.05.2019 12:00:00 23,3 8,2 26,9 28,6 15,7 11,8 15 8 31 17 ESE 1004,8 26 57 0,0
19.05.2019 11:00:00 21,7 10,9 25,1 25,6 15,0 11,8 10 6 25 14 E 1005,4 18 60 0,0
19.05.2019 10:00:00 19,5 10,3 23,2 22,1 14,6 11,8 8 4 13 7 ENE 1005,8 22 60 0,0
19.05.2019 09:00:00 17,8 9,6 20,0 18,3 14,5 11,8 4 2 10 5 NE 1006,0 20 60 0,0
19.05.2019 08:00:00 14,6 9,6 15,7 14,5 14,6 11,8 5 3 9 5 N 1006,2 16 55 0,0
19.05.2019 07:00:00 11,9 9,2 10,5 12,0 14,9 11,8 6 3 10 5 N 1006,4 13 8 0,0
19.05.2019 06:00:00 10,0 8,6 8,5 11,2 15,3 11,8 2 1 8 4 NNW 1006,3 10 0 0,0
19.05.2019 05:00:00 10,0 8,7 7,7 11,0 15,7 11,8 5 3 9 5 N 1006,0 7 0 0,0
19.05.2019 04:00:00 9,8 8,7 7,4 11,4 16,2 11,8 6 3 9 5 N 1006,0 6 0 0,0
19.05.2019 03:00:00 10,1 8,8 7,6 12,2 16,7 11,8 5 3 9 5 N 1006,3 6 0 0,0
19.05.2019 02:00:00 10,8 9,1 8,1 13,0 17,2 11,8 4 2 10 5 N 1006,7 10 0 0,0
19.05.2019 01:00:00 11,3 9,5 8,7 13,9 17,7 11,8 5 3 8 4 N 1006,8 8 0 0,0
19.05.2019 00:00:00 12,4 10,0 9,1 15,0 18,2 11,8 3 2 6 3 NNE 1007,0 9 0 0,0
18.05.2019 23:00:00 13,3 10,4 10,3 16,3 18,7 11,8 4 2 6 4 NNW 1006,9 13 0 0,0
18.05.2019 22:00:00 14,8 10,4 11,2 18,0 19,0 11,8 2 1 3 2 NNW 1006,7 5 0 0,0
18.05.2019 21:00:00 17,3 10,1 13,6 20,4 19,2 11,8 2 1 8 5 ESE 1006,3 47 42 0,0
18.05.2019 20:00:00 20,4 9,0 18,9 23,6 19,1 11,8 6 3 14 7 S 1006,1 54 60 0,0
18.05.2019 19:00:00 20,9 8,8 22,8 26,4 18,7 11,8 6 3 14 8 SSE 1006,0 58 60 0,0
18.05.2019 18:00:00 21,1 8,6 24,0 28,4 18,2 11,8 6 4 16 9 ESE 1006,2 55 60 0,0
18.05.2019 17:00:00 20,4 8,6 23,1 29,2 17,4 11,8 9 5 19 11 SSE 1006,5 59 59 0,0
18.05.2019 16:00:00 20,4 8,8 24,2 30,1 16,6 11,8 9 5 28 15 SSE 1006,7 43 58 0,0
18.05.2019 15:00:00 20,7 9,7 24,6 29,6 15,6 11,8 10 5 28 15 SE 1006,8 33 57 0,0
18.05.2019 14:00:00 19,8 9,5 24,5 28,0 14,7 11,8 10 6 26 14 SE 1007,1 38 45 0,0
18.05.2019 13:00:00 19,7 9,4 23,8 26,5 13,9 11,8 13 7 24 13 SE 1007,3 30 46 0,0
18.05.2019 12:00:00 17,9 8,0 22,1 24,3 13,1 11,8 10 6 32 17 E 1007,7 31 59 0,0
18.05.2019 11:00:00 16,7 8,0 20,0 21,7 12,5 11,8 13 7 23 13 E 1007,9 30 60 0,0
18.05.2019 10:00:00 15,2 8,7 17,4 19,1 12,0 11,8 9 5 19 10 SE 1008,1 20 60 0,0
18.05.2019 09:00:00 14,2 8,8 15,5 15,5 11,8 11,8 7 4 16 9 SE 1008,2 20 60 0,0
18.05.2019 08:00:00 13,4 9,3 11,8 11,9 11,9 11,8 6 3 13 7 SE 1008,0 15 60 0,0
18.05.2019 07:00:00 10,0 8,0 9,0 8,5 12,2 11,8 0 0 6 4 N 1008,1 8 60 0,0
18.05.2019 06:00:00 8,2 7,7 5,1 7,7 12,6 11,8 5 3 8 4 NE 1008,2 6 2 0,0
18.05.2019 05:00:00 7,6 6,9 4,9 8,1 12,9 11,8 4 2 8 4 NE 1008,2 2,7 0 0,0
18.05.2019 04:00:00 8,8 8,1 5,7 8,7 13,3 11,8 5 3 8 4 ENE 1008,3 6 0 0,0
18.05.2019 03:00:00 9,4 8,5 5,5 9,4 13,6 11,9 4 2 9 5 ENE 1008,5 7 0 0,0

tt = Température de l'air
td = dewpoint
tt 5cm = Température de l'air 5cm
tt -5cm = Température de l'air -5cm
tt -20cm = Température de l'air -20cm
tt -100cm = Température de l'air -100cm
ff = Vitesse du vent
fx = gusts
dd = Direction du vent
ppp = reduced air pressure
vv = visibility
sd = Ensoleillement
rr = Quantités de précipitations

stations d'obs. à proximité